Location: Moscow Pond
(43.6842°N, 73.2366°W)
Time: 03:00:56
(UTC+00:00)

Cosmos 2251 Rocket - Pass Details

Date: 08 November 2025
Orbit: 760 x 788 km, 74.0° (Epoch: 04 December)

Event Time Altitude Azimuth Distance (km) Brightness Sun altitude
Rises 10:13:28 0° 342° (NNW) 3,285 6.5 -15.6°
Reaches altitude 10° 10:15:55 10° 346° (NNW) 2,355 5.8 -15.1°
Maximum altitude 10:21:12 60° 66° (ENE) 902 4.1 -14.2°
Drops below altitude 10° 10:26:29 10° 147° (SSE) 2,344 6.7 -13.3°
Sets 10:28:54 0° 151° (SSE) 3,268 7.4 -12.8°
